{"data":{"norad_id":67375,"epoch":"2026-09-20T17:11:35.880000Z","epoch_age_seconds":81387,"freshness":"FRESH","line1":"1 67375U 26004N   26263.71638750  .00000390  00000+0  50760-4 0  9999","line2":"2 67375  97.8110 260.6218 0001385 152.6199 207.5090 14.85941560 37489","mean_motion":14.8594156,"eccentricity":0.0001385,"inclination_deg":97.811,"raan_deg":260.6218,"arg_perigee_deg":152.6199,"mean_anomaly_deg":207.509,"bstar":5.076e-5,"rev_number":3748,"period_min":96.908252569502,"perigee_km":609.66409276442,"apogee_km":611.59998178774,"semimajor_km":6988.7690372761,"source":"CELESTRAK","updated_at":"2026-09-21T09:00:16.594430Z"}}